Volver al catálogo

STARLINK-3585

ActivoComunicacionesVLEO
NORAD 51875·PAYLOAD·🇺🇸 United States

Lanzado Mar 3, 2022 desde Cape Canaveral Space Force Station

Loading…

Próximos Pases (próximas 24 horas)

TLE

ActualizadoSource: CelesTrak SupGP

Época: Sep 14, 2026, 21:20 UTC

1 51875C 22022Z   26257.88937500  .00037671  00000+0  10777-2 0  2570
2 51875  53.1576 229.7831 0001346  96.4341 269.2594 15.35382308    14

Sigue STARLINK-3585 en tiempo real con AllMySat

Download on the App Store